Regional Weather Roundup
Issued by NWS

Home | Current Version | Previous Version | Text Only | Print | Product List | Glossary On
Versions: 1 2 3 4 5 6 7 8 9 10 11 12 13 14 15 16 17 18 19 20 21 22 23 24 25 26 27 28 29 30 31 32 33 34 35 36 37 38 39 40 41 42 43 44 45 46 47 48 49 50
000
ASUS44 KJAN 281610
RWRMS

MISSISSIPPI HOURLY WEATHER ROUNDUP
NATIONAL WEATHER SERVICE JACKSON MS
1000 AM CST FRI NOV 28 2014

NOTE: "FAIR: INDICATES FEW OR NO CLOUDS BELOW 12,000 FEET WITH NO
SIGNIFICANT WEATHER AND/OR OBSTRUCTIONS TO VISIBILITY.

MSZ001>002-007>008-010>013-018>021-025>028-034>036-281700-
NORTHWEST MISSISSIPPI

CITY           SKY/WX    TMP DP  RH WIND       PRES   REMARKS
CLARKSDALE     FAIR      41  32  70 S10       30.42F
CLEVELAND      FAIR      43  34  72 S13       30.41F
GREENWOOD      SUNNY     46  29  51 SE9       30.42F
GREENVILLE     SUNNY     44  34  67 SE14      30.40F
GRENADA        FAIR      43  30  61 E6        30.43F
OLIVE BRANCH   SUNNY     39  30  70 S12       30.39F WCI  32
OXFORD         FAIR      39  27  60 S7        30.42F WCI  34
TUNICA         SUNNY     41  32  70 S14       30.41F
$$

MSZ003>006-009-014>017-022>024-029>033-037>039-281700-
NORTHEAST MISSISSIPPI

CITY           SKY/WX    TMP DP  RH WIND       PRES   REMARKS
COLUMBUS AFB   SUNNY     41  25  53 VRB5      30.46F
CORINTH        FAIR      39  25  56 S8        30.41F WCI  34
GOLDN TRIANGLE SUNNY     39  28  65 SE7       30.45F WCI  34
STARKVILLE     FAIR      41  30  65 SE5       30.46S
TUPELO         SUNNY     40  27  59 SW7       30.44F
$$

MSZ040-058-281700-
CENTRAL MISSISSIPPI

CITY           SKY/WX    TMP DP  RH WIND       PRES   REMARKS
JACKSON INTL   MOSUNNY   46  28  49 E9        30.43F
JACKSON HAWKNS SUNNY     46  30  53 SE9       30.44S
MERIDIAN KEY   SUNNY     46  25  43 NE8       30.45F
MERIDIAN NAS   SUNNY     44  27  51 NE5       30.46F
RAYMOND        FAIR      46  41  81 SE8       30.43F
VICKSBURG      SUNNY     47  32  56 SE12      30.42F
$$

MSZ059>079-281700-
SOUTH MISSISSIPPI

CITY           SKY/WX    TMP DP  RH WIND       PRES   REMARKS
BROOKHAVEN     FAIR      45  32  61 E3        30.44F
HATTIESBURG    SUNNY     45  29  53 E7        30.47S
MCCOMB         SUNNY     47  29  49 SE8       30.43F
NATCHEZ        SUNNY     48  34  57 SE10      30.43S
PINE BELT      SUNNY     45  27  49 E6        30.46S
$$

MSZ080>082-281700-
COASTAL MISSISSIPPI

CITY           SKY/WX    TMP DP  RH WIND       PRES   REMARKS
BAY ST LOUIS   SUNNY     41  27  56 VRB6      30.45F
BILOXI         SUNNY     49  30  48 NE6       30.45F
PASCAGOULA     SUNNY     49  32  52 VRB5      30.45F
GULFPORT       SUNNY     48  31  51 E9        30.45F
$$


USA.gov is the U.S. government's official web portal to all federal, state and local government web resources and services.